GPU-Z Sensor Log.txt

Re: Bardzo mało FPS CS:GO - AMD FX8320 - R9 280x + nie mogę ustawić czarnych pasków.

Screen z GPU-Z i HWMONITOR http://obrazki.elektroda.pl/3935121800_1497110437_thumb.jpg http://obrazki.elektroda.pl/3678987500_1497110457_thumb.jpg http://obrazki.elektroda.pl/8915191900_1497110567_thumb.jpg + same logi w załączniku.


Date , GPU Core Clock [MHz] , GPU Memory Clock [MHz] , GPU Temperature [°C] , Fan Speed (%) [%] , Fan Speed (RPM) [RPM] , GPU Load [%] , Memory Usage (Dedicated) [MB] , Memory Usage (Dynamic) [MB] , VDDC [V] ,
2017-06-10 17:58:52 , 300.0 , 150.0 , 47.0 , 21 , 1103 , 2 , 181 , 78 , 0.850 ,
2017-06-10 17:58:53 , 300.0 , 150.0 , 47.0 , 21 , 1090 , 0 , 181 , 78 , 0.850 ,
2017-06-10 17:58:54 , 300.0 , 150.0 , 47.0 , 21 , 1085 , 0 , 181 , 78 , 0.850 ,
2017-06-10 17:58:55 , 300.0 , 150.0 , 46.0 , 21 , 1081 , 0 , 181 , 78 , 0.850 ,
2017-06-10 17:58:56 , 300.0 , 150.0 , 46.0 , 21 , 1081 , 0 , 181 , 78 , 0.850 ,
2017-06-10 17:58:57 , 300.0 , 150.0 , 46.0 , 21 , 1077 , 0 , 181 , 78 , 0.850 ,
2017-06-10 17:58:58 , 300.0 , 150.0 , 46.0 , 21 , 1062 , 0 , 181 , 78 , 0.850 ,
2017-06-10 17:58:59 , 300.0 , 150.0 , 46.0 , 21 , 1056 , 0 , 181 , 78 , 0.850 ,
2017-06-10 17:59:00 , 300.0 , 150.0 , 45.0 , 21 , 1052 , 0 , 181 , 78 , 0.850 ,
2017-06-10 17:59:01 , 300.0 , 150.0 , 45.0 , 21 , 1049 , 0 , 181 , 78 , 0.850 ,
2017-06-10 17:59:02 , 300.0 , 150.0 , 45.0 , 21 , 1047 , 0 , 181 , 78 , 0.850 ,
2017-06-10 17:59:03 , 300.0 , 150.0 , 45.0 , 20 , 1036 , 0 , 181 , 78 , 0.850 ,
2017-06-10 17:59:04 , 300.0 , 150.0 , 45.0 , 20 , 1025 , 0 , 181 , 78 , 0.850 ,
2017-06-10 17:59:05 , 300.0 , 150.0 , 45.0 , 20 , 1017 , 0 , 181 , 78 , 0.850 ,
2017-06-10 17:59:06 , 300.0 , 150.0 , 45.0 , 20 , 1014 , 0 , 181 , 78 , 0.850 ,
2017-06-10 17:59:07 , 300.0 , 150.0 , 44.0 , 20 , 1014 , 0 , 181 , 78 , 0.850 ,
2017-06-10 17:59:08 , 300.0 , 150.0 , 44.0 , 20 , 1013 , 0 , 181 , 78 , 0.850 ,
2017-06-10 17:59:09 , 300.0 , 150.0 , 44.0 , 20 , 1013 , 0 , 181 , 78 , 0.850 ,
2017-06-10 17:59:10 , 300.0 , 150.0 , 44.0 , 20 , 1014 , 0 , 181 , 78 , 0.850 ,
2017-06-10 17:59:11 , 300.0 , 150.0 , 44.0 , 20 , 1012 , 0 , 181 , 78 , 0.850 ,
2017-06-10 17:59:12 , 300.0 , 150.0 , 44.0 , 20 , 1014 , 0 , 181 , 78 , 0.850 ,
2017-06-10 17:59:13 , 300.0 , 150.0 , 44.0 , 20 , 1015 , 0 , 181 , 78 , 0.850 ,
2017-06-10 17:59:14 , 300.0 , 150.0 , 44.0 , 20 , 1015 , 0 , 181 , 78 , 0.850 ,
2017-06-10 17:59:15 , 300.0 , 150.0 , 43.0 , 20 , 1014 , 0 , 181 , 78 , 0.850 ,
2017-06-10 17:59:16 , 300.0 , 150.0 , 43.0 , 19 , 1014 , 3 , 181 , 78 , 0.850 ,
2017-06-10 17:59:17 , 300.0 , 150.0 , 43.0 , 20 , 1013 , 0 , 181 , 78 , 0.850 ,
2017-06-10 17:59:18 , 300.0 , 150.0 , 43.0 , 20 , 1008 , 0 , 181 , 78 , 0.850 ,
2017-06-10 17:59:19 , 300.0 , 150.0 , 43.0 , 19 , 1003 , 0 , 181 , 78 , 0.850 ,
2017-06-10 17:59:20 , 300.0 , 150.0 , 43.0 , 19 , 992 , 0 , 181 , 78 , 0.850 ,
2017-06-10 17:59:21 , 300.0 , 150.0 , 43.0 , 20 , 986 , 0 , 181 , 78 , 0.850 ,
2017-06-10 17:59:22 , 300.0 , 150.0 , 43.0 , 19 , 985 , 0 , 181 , 78 , 0.850 ,
2017-06-10 17:59:23 , 300.0 , 150.0 , 43.0 , 19 , 982 , 0 , 181 , 78 , 0.850 ,
2017-06-10 17:59:24 , 300.0 , 150.0 , 43.0 , 19 , 981 , 0 , 181 , 78 , 0.850 ,
2017-06-10 17:59:25 , 300.0 , 150.0 , 42.0 , 19 , 983 , 4 , 181 , 78 , 0.850 ,
2017-06-10 17:59:26 , 300.0 , 150.0 , 42.0 , 19 , 982 , 7 , 181 , 78 , 0.850 ,
2017-06-10 17:59:27 , 300.0 , 150.0 , 42.0 , 19 , 979 , 0 , 181 , 78 , 0.850 ,
2017-06-10 17:59:28 , 300.0 , 150.0 , 42.0 , 19 , 974 , 0 , 181 , 78 , 0.850 ,
2017-06-10 17:59:29 , 300.0 , 150.0 , 42.0 , 19 , 967 , 0 , 181 , 78 , 0.850 ,
2017-06-10 17:59:30 , 300.0 , 150.0 , 42.0 , 19 , 959 , 0 , 181 , 78 , 0.850 ,
2017-06-10 17:59:31 , 300.0 , 150.0 , 42.0 , 19 , 954 , 4 , 181 , 78 , 0.850 ,
2017-06-10 17:59:32 , 300.0 , 150.0 , 42.0 , 19 , 950 , 0 , 181 , 78 , 0.850 ,
2017-06-10 17:59:33 , 300.0 , 150.0 , 42.0 , 19 , 948 , 0 , 181 , 78 , 0.850 ,
2017-06-10 17:59:34 , 300.0 , 150.0 , 41.0 , 19 , 948 , 0 , 181 , 78 , 0.850 ,
2017-06-10 17:59:35 , 300.0 , 150.0 , 41.0 , 19 , 948 , 0 , 181 , 78 , 0.850 ,
2017-06-10 17:59:36 , 300.0 , 150.0 , 41.0 , 19 , 948 , 0 , 181 , 78 , 0.850 ,
2017-06-10 17:59:37 , 300.0 , 150.0 , 41.0 , 19 , 948 , 0 , 181 , 78 , 0.850 ,
2017-06-10 17:59:39 , 300.0 , 150.0 , 41.0 , 19 , 945 , 0 , 181 , 78 , 0.850 ,
2017-06-10 17:59:40 , 300.0 , 150.0 , 41.0 , 19 , 944 , 0 , 181 , 78 , 0.850 ,
2017-06-10 17:59:41 , 300.0 , 150.0 , 41.0 , 19 , 943 , 0 , 181 , 78 , 0.850 ,
2017-06-10 17:59:42 , 300.0 , 150.0 , 41.0 , 18 , 934 , 0 , 181 , 78 , 0.850 ,
2017-06-10 17:59:43 , 300.0 , 150.0 , 41.0 , 18 , 927 , 0 , 181 , 78 , 0.850 ,
2017-06-10 17:59:44 , 300.0 , 150.0 , 41.0 , 19 , 918 , 0 , 181 , 78 , 0.850 ,
2017-06-10 17:59:45 , 300.0 , 150.0 , 41.0 , 18 , 916 , 0 , 181 , 78 , 0.850 ,
2017-06-10 17:59:46 , 300.0 , 150.0 , 41.0 , 18 , 914 , 0 , 181 , 78 , 0.850 ,
2017-06-10 17:59:47 , 300.0 , 150.0 , 41.0 , 18 , 913 , 0 , 181 , 78 , 0.850 ,
2017-06-10 17:59:48 , 300.0 , 150.0 , 41.0 , 18 , 913 , 0 , 181 , 78 , 0.850 ,
2017-06-10 17:59:49 , 300.0 , 150.0 , 40.0 , 18 , 913 , 0 , 181 , 78 , 0.850 ,
2017-06-10 17:59:50 , 300.0 , 150.0 , 40.0 , 18 , 914 , 0 , 181 , 78 , 0.850 ,
2017-06-10 17:59:51 , 300.0 , 150.0 , 40.0 , 18 , 914 , 0 , 181 , 78 , 0.850 ,
2017-06-10 17:59:52 , 300.0 , 150.0 , 40.0 , 18 , 915 , 0 , 181 , 78 , 0.850 ,
2017-06-10 17:59:53 , 300.0 , 150.0 , 40.0 , 18 , 914 , 0 , 181 , 78 , 0.850 ,
2017-06-10 17:59:54 , 300.0 , 150.0 , 40.0 , 18 , 913 , 0 , 181 , 78 , 0.850 ,
2017-06-10 17:59:55 , 300.0 , 150.0 , 40.0 , 18 , 913 , 0 , 181 , 78 , 0.850 ,
2017-06-10 17:59:56 , 300.0 , 150.0 , 40.0 , 18 , 912 , 0 , 181 , 78 , 0.850 ,
2017-06-10 17:59:57 , 300.0 , 150.0 , 40.0 , 18 , 910 , 11 , 31 , 32 , 0.850 ,
2017-06-10 17:59:58 , 300.0 , 150.0 , 40.0 , 18 , 911 , 0 , 37 , 37 , 0.850 ,
2017-06-10 17:59:59 , 300.0 , 150.0 , 40.0 , 18 , 911 , 0 , 40 , 37 , 0.850 ,
2017-06-10 18:00:00 , 300.0 , 150.0 , 41.0 , 19 , 912 , 1 , 35 , 34 , 0.850 ,
2017-06-10 18:00:01 , 501.0 , 1500.0 , 43.0 , 20 , 917 , 14 , 43 , 34 , 0.950 ,


Pobierz plik - link do postu